User: anonymous   Login
Location: Unspecified
(0.0000°N, 0.0000°E)
Time: 07:21:34
(UTC+00:00)
Language:

ARKYD 6A - Orbit

View from above orbital plane
View from above orbital plane
View from above satellite
View from above satellite

Ground track
Ground track

The orbit data is extracted from the following two-line orbital elements,

1 43130U 18004V   19082.91562884 +.00000791 +00000-0 +36598-4 0  9999
2 43130 097.4971 150.7702 0009623 189.2660 170.8400 15.23066044066287
Epoch (UTC): 23 March 2019 21:58:30
Eccentricity: 0.0009623
inclination: 97.4971°
perigee height: 490 km
apogee height: 503 km
right ascension of ascending node: 150.7702°
argument of perigee: 189.2660°
revolutions per day: 15.23066044
mean anomaly at epoch: 170.8400°
orbit number at epoch: 6628

The dashed part of the orbit path shows where the satellite is in the earth's shadow,  

DLR